Simultaneous Nadir Overpasses (SNOs) Predictions

Prediction of SNOs between NOAA-19 and NPP Satellite Orbit:

Table of predicted SNOs for the next 14.0 days since TLE Epoch: 5/20/2016
Index Date (NOAA-19) Time (NOAA-19) Lat,Lon (NOAA-19) SZA (NOAA-19 ) Date (NPP) Time (NPP) Lat,Lon (NPP) SZA (NPP ) Distance(km) Time Diff (sec)
1 05/24/2016 07:08:21 81.00, 19.58 63.83 05/24/2016 07:09:33 81.00, 19.72 63.77 2.53 72
2 05/24/2016 07:59:23 -81.00,-172.92 116.21 05/24/2016 08:00:18 -81.00,-173.10 116.22 3.30 55
3 05/24/2016 08:50:22 81.00, -5.52 63.77 05/24/2016 08:51:03 81.00, -5.69 63.77 2.96 41
4 05/24/2016 09:41:25 -81.00, 161.60 116.23 05/24/2016 09:41:48 -81.01, 161.48 116.22 2.18 23
5 05/24/2016 10:32:24 81.00, -30.99 63.75 05/24/2016 10:32:33 81.00, -31.10 63.76 1.89 9
6 05/24/2016
